Time,TemperatureF,DewpointF,PressureIn,WindDirection,WindDirectionDegrees,WindSpeedMPH,WindSpeedGustMPH,Humidity,HourlyPrecipIn,Conditions,Clouds,dailyrainin,SolarRadiationWatts/m^2,SoftwareType,DateUTC
2013-07-10 00:01:00,74.0,73.0,-100.00,SSE,152,0.0,0.0,97,0.00,,,0.00,0.000000,,2013-07-10 04:01:00,
2013-07-10 00:33:00,73.0,72.0,-100.00,SSE,160,0.0,0.0,97,0.00,,,0.00,0.000000,,2013-07-10 04:33:00,
2013-07-10 00:43:00,73.0,72.0,-100.00,SSE,160,0.0,0.0,97,0.00,,,0.00,0.000000,,2013-07-10 04:43:00,
2013-07-10 00:52:00,73.0,72.0,-100.00,SSE,160,0.0,0.0,97,0.00,,,0.00,0.000000,,2013-07-10 04:52:00,
2013-07-10 01:02:00,73.0,72.0,-100.00,SSE,160,0.0,0.0,97,0.00,,,0.00,0.000000,,2013-07-10 05:02:00,
2013-07-10 01:32:00,73.0,72.0,-100.00,North,5,0.0,0.0,97,0.00,,,0.00,0.000000,,2013-07-10 05:32:00,
2013-07-10 01:42:00,73.0,72.0,-100.00,North,5,0.0,0.0,97,0.00,,,0.00,0.000000,,2013-07-10 05:42:00,
2013-07-10 01:53:00,73.0,72.0,-100.00,North,5,0.0,0.0,97,0.00,,,0.00,0.000000,,2013-07-10 05:53:00,
2013-07-10 02:01:00,73.0,72.0,-100.00,North,5,0.0,0.0,97,0.00,,,0.00,0.000000,,2013-07-10 06:01:00,
2013-07-10 02:33:00,71.0,70.0,-100.00,SW,215,0.0,0.0,97,0.00,,,0.00,0.000000,,2013-07-10 06:33:00,
2013-07-10 02:42:00,71.0,70.0,-100.00,SW,215,0.0,0.0,97,0.00,,,0.00,0.000000,,2013-07-10 06:42:00,
2013-07-10 02:52:00,71.0,70.0,-100.00,SW,215,0.0,0.0,97,0.00,,,0.00,0.000000,,2013-07-10 06:52:00,
2013-07-10 03:01:00,71.0,70.0,-100.00,SW,215,0.0,0.0,97,0.00,,,0.00,0.000000,,2013-07-10 07:01:00,
2013-07-10 03:33:00,72.0,71.0,-100.00,South,188,0.0,0.0,98,0.00,,,0.00,0.000000,,2013-07-10 07:33:00,
2013-07-10 03:43:00,72.0,71.0,-100.00,South,188,0.0,0.0,98,0.00,,,0.00,0.000000,,2013-07-10 07:43:00,
2013-07-10 03:53:00,72.0,71.0,-100.00,South,188,0.0,0.0,98,0.00,,,0.00,0.000000,,2013-07-10 07:53:00,
2013-07-10 04:02:00,72.0,71.0,-100.00,South,188,0.0,0.0,98,0.00,,,0.00,0.000000,,2013-07-10 08:02:00,
2013-07-10 04:33:00,73.0,72.0,-100.00,WSW,238,0.0,0.0,98,0.00,,,0.00,0.000000,,2013-07-10 08:33:00,
2013-07-10 04:42:00,73.0,72.0,-100.00,WSW,238,0.0,0.0,98,0.00,,,0.00,0.000000,,2013-07-10 08:42:00,
2013-07-10 04:53:00,73.0,72.0,-100.00,WSW,238,0.0,0.0,98,0.00,,,0.00,0.000000,,2013-07-10 08:53:00,
2013-07-10 05:02:00,73.0,72.0,-100.00,WSW,238,0.0,0.0,98,0.00,,,0.00,0.000000,,2013-07-10 09:02:00,
2013-07-10 05:43:00,73.0,72.0,-100.00,SSE,166,0.0,0.0,98,0.00,,,0.00,0.000000,,2013-07-10 09:43:00,
2013-07-10 05:53:00,73.0,72.0,-100.00,SSE,166,0.0,0.0,98,0.00,,,0.00,0.000000,,2013-07-10 09:53:00,
2013-07-10 06:01:00,73.0,72.0,-100.00,SSE,166,0.0,0.0,98,0.00,,,0.00,0.000000,,2013-07-10 10:01:00,
2013-07-10 06:32:00,74.0,73.0,-100.00,SSW,200,0.0,0.0,98,0.00,,,0.00,0.000000,,2013-07-10 10:32:00,
2013-07-10 06:51:00,-999.0,-99.9,-100.00,SSW,200,0.0,0.0,-999,-99.99,,,-99.99,0.000000,,2013-07-10 10:51:00,
2013-07-10 07:00:00,-999.0,-99.9,-100.00,SSW,200,0.0,0.0,-999,-99.99,,,-99.99,0.000000,,2013-07-10 11:00:00,
2013-07-10 09:52:00,76.0,75.0,-100.00,SW,218,4.0,6.0,97,-99.99,,,0.00,160.000000,,2013-07-10 13:52:00,
2013-07-10 10:01:00,76.0,75.0,-100.00,SW,218,4.0,6.0,97,-99.99,,,0.00,160.000000,,2013-07-10 14:01:00,
2013-07-10 10:43:00,80.0,75.0,-100.00,SW,217,4.0,7.0,85,0.00,,,0.00,316.000000,,2013-07-10 14:43:00,
2013-07-10 10:53:00,80.0,75.0,-100.00,SW,217,4.0,7.0,85,0.00,,,0.00,316.000000,,2013-07-10 14:53:00,
2013-07-10 11:01:00,80.0,75.0,-100.00,SW,217,4.0,7.0,85,0.00,,,0.00,316.000000,,2013-07-10 15:01:00,
2013-07-10 11:43:00,86.0,75.0,-100.00,North,10,0.0,8.0,71,0.00,,,0.00,543.000000,,2013-07-10 15:43:00,
2013-07-10 11:52:00,86.0,75.0,-100.00,North,10,0.0,8.0,71,0.00,,,0.00,543.000000,,2013-07-10 15:52:00,
2013-07-10 12:01:00,86.0,75.0,-100.00,North,10,0.0,8.0,71,0.00,,,0.00,543.000000,,2013-07-10 16:01:00,
2013-07-10 12:33:00,88.0,76.0,-100.00,SSW,197,2.0,8.0,67,0.00,,,0.00,709.000000,,2013-07-10 16:33:00,
2013-07-10 12:44:00,88.0,76.0,-100.00,SSW,197,2.0,8.0,67,0.00,,,0.00,709.000000,,2013-07-10 16:44:00,
2013-07-10 12:53:00,88.0,76.0,-100.00,SSW,197,2.0,8.0,67,0.00,,,0.00,709.000000,,2013-07-10 16:53:00,
2013-07-10 13:02:00,88.0,76.0,-100.00,SSW,197,2.0,8.0,67,0.00,,,0.00,709.000000,,2013-07-10 17:02:00,
2013-07-10 13:32:00,81.0,71.0,-100.00,NNW,327,7.0,17.0,72,0.00,,,-99.99,563.000000,,2013-07-10 17:32:00,
2013-07-10 13:43:00,81.0,71.0,-100.00,NNW,327,7.0,17.0,72,0.00,,,-99.99,563.000000,,2013-07-10 17:43:00,
2013-07-10 13:53:00,81.0,71.0,-100.00,NNW,327,7.0,17.0,72,0.00,,,-99.99,563.000000,,2013-07-10 17:53:00,
2013-07-10 14:02:00,81.0,71.0,-100.00,NNW,327,7.0,17.0,72,0.00,,,-99.99,563.000000,,2013-07-10 18:02:00,
2013-07-10 15:01:00,76.0,72.0,-100.00,SE,127,0.0,14.0,87,0.00,,,0.00,94.000000,,2013-07-10 19:01:00,
2013-07-10 15:32:00,80.0,73.0,-100.00,SSW,195,0.0,6.0,78,0.00,,,0.00,244.000000,,2013-07-10 19:32:00,
2013-07-10 15:42:00,80.0,73.0,-100.00,SSW,195,0.0,6.0,78,0.00,,,0.00,244.000000,,2013-07-10 19:42:00,
2013-07-10 15:53:00,80.0,73.0,-100.00,SSW,195,0.0,6.0,78,0.00,,,0.00,244.000000,,2013-07-10 19:53:00,
2013-07-10 16:01:00,80.0,73.0,-100.00,SSW,195,0.0,6.0,78,0.00,,,0.00,244.000000,,2013-07-10 20:01:00,
2013-07-10 16:32:00,83.0,75.0,-100.00,SSE,161,0.0,8.0,76,0.00,,,0.00,339.000000,,2013-07-10 20:32:00,
2013-07-10 16:43:00,83.0,75.0,-100.00,SSE,161,0.0,8.0,76,0.00,,,0.00,339.000000,,2013-07-10 20:43:00,
2013-07-10 16:52:00,83.0,75.0,-100.00,SSE,161,0.0,8.0,76,0.00,,,0.00,339.000000,,2013-07-10 20:52:00,
2013-07-10 17:01:00,83.0,75.0,-100.00,SSE,161,0.0,8.0,76,0.00,,,0.00,339.000000,,2013-07-10 21:01:00,
2013-07-10 17:32:00,84.0,74.0,-100.00,East,89,0.0,9.0,72,0.00,,,0.00,407.000000,,2013-07-10 21:32:00,
2013-07-10 17:42:00,84.0,74.0,-100.00,East,89,0.0,9.0,72,0.00,,,0.00,407.000000,,2013-07-10 21:42:00,
2013-07-10 17:52:00,84.0,74.0,-100.00,East,89,0.0,9.0,72,0.00,,,0.00,407.000000,,2013-07-10 21:52:00,
2013-07-10 18:01:00,84.0,74.0,-100.00,East,89,0.0,9.0,72,0.00,,,0.00,407.000000,,2013-07-10 22:01:00,
2013-07-10 19:32:00,75.0,68.0,-100.00,NNW,345,11.0,24.0,80,-99.99,,,0.33,107.000000,,2013-07-10 23:32:00,
2013-07-10 19:43:00,75.0,68.0,-100.00,NNW,345,11.0,24.0,80,-99.99,,,0.33,107.000000,,2013-07-10 23:43:00,
2013-07-10 19:44:00,75.0,68.0,-100.00,NNW,345,11.0,24.0,80,-99.99,,,0.33,107.000000,,2013-07-10 23:44:00,
2013-07-10 19:52:00,75.0,68.0,-100.00,NNW,345,11.0,24.0,80,-99.99,,,0.33,107.000000,,2013-07-10 23:52:00,
2013-07-10 20:01:00,75.0,68.0,-100.00,NNW,345,11.0,24.0,80,-99.99,,,0.33,107.000000,,2013-07-11 00:01:00,
2013-07-10 20:32:00,71.0,69.0,-100.00,North,356,1.0,11.0,92,0.11,,,0.44,2.000000,,2013-07-11 00:32:00,
2013-07-10 20:43:00,71.0,69.0,-100.00,North,356,1.0,11.0,92,0.11,,,0.44,2.000000,,2013-07-11 00:43:00,
2013-07-10 20:52:00,71.0,69.0,-100.00,North,356,1.0,11.0,92,0.11,,,0.44,2.000000,,2013-07-11 00:52:00,
2013-07-10 21:01:00,71.0,69.0,-100.00,North,356,1.0,11.0,92,0.11,,,0.44,2.000000,,2013-07-11 01:01:00,
2013-07-10 21:32:00,71.0,70.0,-100.00,SSE,154,4.0,7.0,96,0.04,,,0.48,0.000000,,2013-07-11 01:32:00,
2013-07-10 21:43:00,71.0,70.0,-100.00,SSE,154,4.0,7.0,96,0.04,,,0.48,0.000000,,2013-07-11 01:43:00,
2013-07-10 21:52:00,71.0,70.0,-100.00,SSE,154,4.0,7.0,96,0.04,,,0.48,0.000000,,2013-07-11 01:52:00,
2013-07-10 22:02:00,71.0,70.0,-100.00,SSE,154,4.0,7.0,96,0.04,,,0.48,0.000000,,2013-07-11 02:02:00,
2013-07-10 22:44:00,71.0,70.0,-100.00,WSW,250,0.0,9.0,96,0.00,,,0.48,0.000000,,2013-07-11 02:44:00,
2013-07-10 22:53:00,71.0,70.0,-100.00,WSW,250,0.0,9.0,96,0.00,,,0.48,0.000000,,2013-07-11 02:53:00,
2013-07-10 23:02:00,71.0,70.0,-100.00,WSW,250,0.0,9.0,96,0.00,,,0.48,0.000000,,2013-07-11 03:02:00,
2013-07-10 23:42:00,70.0,69.0,-100.00,SW,219,0.0,0.0,96,0.00,,,0.48,0.000000,,2013-07-11 03:42:00,
2013-07-10 23:53:00,70.0,69.0,-100.00,SW,219,0.0,0.0,96,0.00,,,0.48,0.000000,,2013-07-11 03:53:00,